Regional Weather Roundup
Issued by NWS

Home | Current Version | Previous Version | Text Only | Print | Product List | Glossary Off
Versions: 1 2 3 4 5 6 7 8 9 10 11 12 13 14 15 16 17 18 19 20 21 22 23 24 25 26 27 28 29 30 31 32 33 34 35 36 37 38 39 40 41 42 43 44 45 46 47 48 49 50

000
ASUS43 KLOT 302210
RWRIL

ILLINOIS REGIONAL WEATHER ROUNDUP
NATIONAL WEATHER SERVICE CHICAGO/ROMEOVILLE IL
500 PM CDT THU OCT 30 2014

NOTE: "FAIR" INDICATES FEW OR NO CLOUDS BELOW 12,000 FEET WITH NO
SIGNIFICANT WEATHER AND/OR OBSTRUCTIONS TO VISIBILITY.

* THESE STATIONS ARE NOT UNDER NWS QUALITY CONTROL. THEY ALSO MAY NOT
  REPORT WEATHER SUCH AS PRECIPITATION OR FOG.

ILZ001-002-007-009-015-016-024-302300-
NORTHWEST ILLINOIS

CITY           SKY/WX    TMP DP  RH WIND       PRES   REMARKS
MOLINE         CLOUDY    51  38  60 E6        30.05R
STERLING*      CLOUDY    50  37  62 W3        30.07R
SAVANNA*       CLOUDY    50  37  61 CALM      30.07R
$$

ILZ003-004-008-010-011-017-018-302300-
NORTH CENTRAL ILLINOIS

CITY           SKY/WX    TMP DP  RH WIND       PRES   REMARKS
ROCKFORD       CLOUDY    51  35  54 SW7       30.08S
FREEPORT*      CLOUDY    49  36  61 CALM      30.08R
ROCHELLE*      CLOUDY    49  35  57 NW3       30.07R
DE KALB*       CLOUDY    48  35  60 NW3       30.07R
PERU*          CLOUDY    49  37  61 S3        30.07S
$$

ILZ005-006-012>014-019>023-302300-
NORTHEAST ILLINOIS

CITY           SKY/WX    TMP DP  RH WIND       PRES   REMARKS
CHICAGO-OHARE  CLOUDY    50  35  56 W7        30.05S
CHICAGO-MIDWAY CLOUDY    51  36  56 SW9       30.06S
AURORA         CLOUDY    50  35  56 SW6       30.07R
LANSING*       CLOUDY    49  36  60 SW6       30.07S
JOLIET*        CLOUDY    49  35  59 SW3       30.07S
WAUKEGAN       CLOUDY    50  34  54 W8        30.05R
DUPAGE AIRPORT CLOUDY    50  35  56 SW7       30.06R
KANKAKEE*      DRIZZLE   49  39  68 SW3       30.07S
WHEELING       CLOUDY    52  35  52 W6        30.07S
MORRIS*        CLOUDY    49  38  65 SW5       30.06S
ROMEOVILLE*    CLOUDY    49  35  57 W5        30.07S
NORTHERLY ISL    N/A     51  33  50 SW10        N/A
$$

LMZ740>746-302300-
SOUTHERN LAKE MICHIGAN

STATION/POSITION SKY/WX   TEMP    WIND        PRES    VSBY  WAVE
                          AIR SEA DIR/SP/G                  HT/PER
                          (F)     (DEG/KT/KT) (MB)    (MI)  (FT/S)
SOUTHERN BUOY              49 53  220/  8/ 10 1018.1R         2/ 4
WAUKEGAN HARBOR            51     240/  7/ 11   N/A
HARRISON CRIB              51     250/  7/ 10   N/A
BURNHAM HARBOR             50     180/  7/  9   N/A
CALUMET HARBOR             50     210/  5/  9 1016.7F
MICHIGAN CITY              50     230/  6/  9   N/A
$$

ILZ025>027-034>036-040-047-049-050-058-095>099-302300-
WEST-CENTRAL ILLINOIS

CITY           SKY/WX    TMP DP  RH WIND       PRES   REMARKS
QUINCY         MOSUNNY   56  42  59 SE5       30.00R
GALESBURG*     CLOUDY    49  41  73 E6        30.05R
MACOMB*        CLEAR     53  41  63 E9        30.05S
JACKSONVILLE*  CLOUDY    54  44  69 SE5       30.02S
PITTSFIELD*    MOSUNNY   55  43  63 SE8       30.02S
$$

ILZ028>032-037-038-041>044-048-051>054-059>061-302300-
CENTRAL ILLINOIS

CITY           SKY/WX    TMP DP  RH WIND       PRES   REMARKS
PONTIAC        CLOUDY    49  42  78 S5        30.07F
BLOOMINGTON    LGT RAIN  49  40  71 CALM      30.07S
DECATUR        CLOUDY    50  43  77 E5        30.05F
PEORIA         LGT RAIN  49  42  77 NE6       30.06R
LACON*         CLOUDY    47  41  79 CALM      30.05F
LINCOLN*       CLOUDY    49  44  82 E5        30.04S
SPRINGFIELD    CLOUDY    51  43  74 E5        30.05R
TAYLORVILLE    CLOUDY    50  43  76 SE6       30.03F
$$

ILZ033-039-045-046-055>057-062-063-302300-
EAST-CENTRAL ILLINOIS

CITY           SKY/WX    TMP DP  RH WIND       PRES   REMARKS
CHAMPAIGN      LGT RAIN  50  43  77 CALM      30.06S
DANVILLE*      CLOUDY    51  36  56 CALM      30.04S
RANTOUL*       CLOUDY    53  38  57 CALM      30.06S
MATTOON        LGT RAIN  50  43  77 CALM      30.05S
PARIS*         CLOUDY    53  38  57 CALM      30.07F
$$

ILZ079-100>102-302300-
SOUTHWEST ILLINOIS

CITY           SKY/WX    TMP DP  RH WIND       PRES   REMARKS
ALTON          CLOUDY    55  41  58 SE6       30.01S
BELLEVILLE     DRIZZLE   58  44  58 E5        30.01F
CAHOKIA*       LGT RAIN  57  44  62 CALM      30.01F
SPARTA*        CLOUDY    58  41  52 CALM      30.04S
$$

ILZ064>066-069>071-074>076-080>082-084>086-088>090-092>094-302300-
SOUTH-CENTRAL ILLINOIS

CITY           SKY/WX    TMP DP  RH WIND       PRES   REMARKS
CARBONDALE     CLOUDY    60  39  45 S6        30.03F
CAIRO*         CLOUDY    64  40  41 CALM      30.03F
EFFINGHAM*     LGT RAIN  54  39  57 E5        30.04F
MARION         PTSUNNY   61  39  44 S7        30.04F
MT. VERNON     MOCLDY    59  39  47 CALM      30.05F
CENTRALIA*     CLOUDY    57  38  48 CALM      30.03F
SALEM*         CLOUDY    58  40  49 CALM      30.05S
METROPOLIS*    MOSUNNY   62  40  44 CALM      30.03F
$$

ILZ067-068-072-073-078-083-087-091-302300-
SOUTHEAST ILLINOIS

CITY           SKY/WX    TMP DP  RH WIND       PRES   REMARKS
LAWRENCEVILLE  CLOUDY    55  31  39 NE5       30.07R
FLORA*         MOCLDY    56  38  50 CALM      30.06S
FAIRFIELD*     MOCLDY    58  38  48 CALM      30.05R
HARRISBURG*    MOCLDY    60  38  43 S3        30.05F
ROBINSON*      CLOUDY    57  39  51 N5        30.08R
CARMI*         PTCLDY    59  40  49 CALM      30.05S
$$

ABBREVIATIONS USED IN REMARKS
   TC - TEMPERATURE IN CELSIUS
  WCI - WIND CHILL INDEX
   HX - HEAT INDEX
  VSB - VISIBILITY
$$




USA.gov is the U.S. government's official web portal to all federal, state and local government web resources and services.